This is the latest recevied weather packets stored in our database for station/object N4DBJ. If no packets are shown the sender has not sent any weather packets the latest 10 day(s).
| Time | Temp. | Humidity | Pressure | Rain* | Wind** | Luminosity | Snow |
|---|---|---|---|---|---|---|---|
| 1777899113 | 13.89° C | 78% | 1011.4 hPa | 0 mm | - | 60 W/m² | - |
| 1777898810 | 13.33° C | 78% | 1011.3 hPa | 0 mm | - | 58 W/m² | - |
| 1777898508 | 13.33° C | 78% | 1011.5 hPa | 0 mm | - | 58 W/m² | - |
| 1777898205 | 12.78° C | 78% | 1011.3 hPa | 0 mm | - | 58 W/m² | - |
| 1777897902 | 12.78° C | 80% | 1011.5 hPa | 0 mm | - | 61 W/m² | - |
| 1777897598 | 12.78° C | 80% | 1011.5 hPa | 0 mm | - | 65 W/m² | - |
| 1777897293 | 12.22° C | 81% | 1011.5 hPa | 0 mm | - | 65 W/m² | - |
| 1777896990 | 11.67° C | 83% | 1011.5 hPa | 0 mm | - | 61 W/m² | - |
| 1777896687 | 11.67° C | 83% | 1011.4 hPa | 0 mm | - | 58 W/m² | - |
| 1777896384 | 11.67° C | 84% | 1011.4 hPa | 0 mm | - | 53 W/m² | - |
| 1777896082 | 11.11° C | 86% | 1011.5 hPa | 0 mm | - | 49 W/m² | - |
| 1777895780 | 10.56° C | 89% | 1011.3 hPa | 0 mm | - | 46 W/m² | - |
| 1777895477 | 10.56° C | 89% | 1011.4 hPa | 0 mm | - | 42 W/m² | - |
| 1777895174 | 10° C | 90% | 1011.4 hPa | 0 mm | - | 39 W/m² | - |
| 1777894871 | 10° C | 90% | 1011.4 hPa | 0 mm | - | 35 W/m² | - |
| 1777894568 | 10° C | 91% | 1011.2 hPa | 0 mm | - | 31 W/m² | - |
| 1777894266 | 10° C | 90% | 1011.2 hPa | 0 mm | - | 25 W/m² | - |
| 1777893963 | 9.44° C | 90% | 1011.2 hPa | 0 mm | - | 20 W/m² | - |
| 1777893659 | 9.44° C | 89% | 1011 hPa | 0 mm | - | 17 W/m² | - |
| 1777893355 | 9.44° C | 89% | 1011 hPa | 0 mm | - | 14 W/m² | - |
| 1777893051 | 9.44° C | 90% | 1011.2 hPa | 0 mm | - | 10 W/m² | - |
| 1777892749 | 9.44° C | 89% | 1011.1 hPa | 0 mm | - | 6 W/m² | - |
| 1777892444 | 9.44° C | 89% | 1010.9 hPa | 0 mm | - | 4 W/m² | - |
| 1777892140 | 9.44° C | 89% | 1011.1 hPa | 0 mm | - | 2 W/m² | - |
| 1777891838 | 9.44° C | 89% | 1010.9 hPa | 0 mm | - | 0 W/m² | - |
* Rain latest hour (hover to see other rain measurements)
** Current wind speed in m/s (hover to see current wind gust speed)